DLH2P KSAN-EDDM

Flight info

Callsign DLH2P
Flight time N/A
Altitude 35000
Route ZZOOO4 MTBAL DCT CADEZ DCT HAKMN Q73 LAKRR DCT BAWER DCT KU60Q/N0485F370 DCT KU72S DCT KD84U DCT KU06W DCT KP18Y DCT SEGAP DCT 57N090W 62N080W/N0477F390 DCT BEZED DCT AYROU/M084F390 DCT EPMAN DCT 67N050W 6730N04000W 6730N03000W 67N020W 65N010W/M085F410 DCT GUNPA/N0484F410 DCT MITSI P619 BAVTA P992 ATTUS DCT ELSOB DCT ABGUS DCT SODRO/N0480F310 T703 LULAR/N0481F300 T105 LANDU LANDU2B
Aircraft A359/H-SDE2E3GHIJ3J4J5LM1ORWXY/LB1D1

Departure

Time 2026-04-26 08:04
Airport San Diego International Airport (KSAN)

Arrival

Time N/A
Airport Munich Airport (EDDM)
Time Latitude Longitude Altitude Speed Heading
2026-04-26 07:39 32.73255 -117.20542 29 ft 0 kts 163°
2026-04-26 07:51 32.73257 -117.20542 29 ft 2 kts 163°
2026-04-26 07:51 32.73279 -117.20550 28 ft 4 kts 163°
2026-04-26 07:52 32.73304 -117.20560 28 ft 4 kts 161°
2026-04-26 07:52 32.73328 -117.20573 27 ft 4 kts 137°
2026-04-26 07:52 32.73339 -117.20595 29 ft 2 kts 91°
2026-04-26 07:52 32.73340 -117.20625 28 ft 4 kts 90°
2026-04-26 07:53 32.73340 -117.20633 27 ft 0 kts 90°
2026-04-26 07:54 32.73340 -117.20631 29 ft 3 kts 91°
2026-04-26 07:55 32.73401 -117.20562 29 ft 18 kts
2026-04-26 07:55 32.73507 -117.20515 29 ft 16 kts 45°
2026-04-26 07:55 32.73580 -117.20413 29 ft 16 kts 62°
2026-04-26 07:55 32.73573 -117.20286 29 ft 16 kts 106°
2026-04-26 07:56 32.73538 -117.20146 29 ft 26 kts 106°
2026-04-26 07:56 32.73481 -117.19913 29 ft 17 kts 106°
2026-04-26 07:56 32.73459 -117.19822 29 ft 17 kts 106°
2026-04-26 07:56 32.73424 -117.19679 29 ft 18 kts 106°
2026-04-26 07:57 32.73382 -117.19507 29 ft 23 kts 106°
2026-04-26 07:57 32.73337 -117.19322 28 ft 24 kts 105°
2026-04-26 07:57 32.73293 -117.19133 36 ft 24 kts 106°
2026-04-26 07:57 32.73248 -117.18943 29 ft 24 kts 105°
2026-04-26 07:58 32.73202 -117.18750 43 ft 24 kts 105°
2026-04-26 07:58 32.73152 -117.18556 32 ft 25 kts 107°
2026-04-26 07:58 32.73106 -117.18360 31 ft 25 kts 105°
2026-04-26 07:58 32.73061 -117.18161 31 ft 25 kts 105°
2026-04-26 07:59 32.73011 -117.17966 31 ft 25 kts 107°
2026-04-26 07:59 32.72958 -117.17767 31 ft 25 kts 109°
2026-04-26 07:59 32.72951 -117.17707 31 ft 0 kts 82°
2026-04-26 08:02 32.72951 -117.17705 31 ft 3 kts 82°
2026-04-26 08:02 32.72972 -117.17620 31 ft 12 kts 76°
2026-04-26 08:02 32.72997 -117.17563 31 ft 3 kts
2026-04-26 08:02 32.73028 -117.17618 31 ft 15 kts 290°
2026-04-26 08:03 32.73032 -117.17635 31 ft 0 kts 287°
2026-04-26 08:03 32.73096 -117.17889 31 ft 73 kts 286°
2026-04-26 08:03 32.73304 -117.18765 18 ft 145 kts 287°
2026-04-26 08:03 32.73639 -117.20076 493 ft 170 kts 285°
2026-04-26 08:04 32.73976 -117.21397 1525 ft 170 kts 283°
2026-04-26 08:04 32.74312 -117.22834 2081 ft 193 kts 283°
2026-04-26 08:04 32.74645 -117.24421 2432 ft 206 kts 277°
2026-04-26 08:04 32.74583 -117.26148 2823 ft 215 kts 254°
2026-04-26 08:05 32.73828 -117.27690 3325 ft 222 kts 226°
2026-04-26 08:05 32.72482 -117.28623 3876 ft 231 kts 198°
2026-04-26 08:05 32.70852 -117.28617 4405 ft 242 kts 168°
2026-04-26 08:05 32.69263 -117.27894 4987 ft 247 kts 160°
2026-04-26 08:06 32.67692 -117.27039 5546 ft 250 kts 159°
2026-04-26 08:06 32.66101 -117.26176 6154 ft 252 kts 160°
2026-04-26 08:06 32.64528 -117.25235 6744 ft 257 kts 150°
2026-04-26 08:06 32.63281 -117.23671 7255 ft 270 kts 121°
2026-04-26 08:07 32.62743 -117.21471 7576 ft 288 kts 98°
2026-04-26 08:07 32.62542 -117.19096 8058 ft 297 kts 96°
2026-04-26 08:07 32.62360 -117.16612 8682 ft 301 kts 96°
2026-04-26 08:07 32.62163 -117.14141 9251 ft 307 kts 97°
2026-04-26 08:08 32.61981 -117.11600 9896 ft 311 kts 92°
2026-04-26 08:08 32.62290 -117.09026 10290 ft 323 kts 72°
2026-04-26 08:08 32.63080 -117.06461 10555 ft 340 kts 67°
2026-04-26 08:08 32.63983 -117.03803 10799 ft 356 kts 67°
2026-04-26 08:09 32.64923 -117.01013 11064 ft 372 kts 67°
2026-04-26 08:09 32.65886 -116.98113 11340 ft 387 kts 68°
2026-04-26 08:09 32.66614 -116.94983 11596 ft 402 kts 83°
2026-04-26 08:09 32.66787 -116.91643 12004 ft 409 kts 89°
2026-04-26 08:10 32.66854 -116.88240 12526 ft 415 kts 90°
2026-04-26 08:10 32.66918 -116.84800 13031 ft 421 kts 90°
2026-04-26 08:10 32.67038 -116.81324 13544 ft 426 kts 85°
2026-04-26 08:10 32.67776 -116.77882 13983 ft 432 kts 65°
2026-04-26 08:11 32.69413 -116.74913 14450 ft 431 kts 44°
2026-04-26 08:11 32.71751 -116.72747 14902 ft 425 kts 23°
2026-04-26 08:11 32.74463 -116.71382 15374 ft 424 kts 14°
2026-04-26 08:11 32.77238 -116.70165 15880 ft 427 kts 15°
2026-04-26 08:12 32.80028 -116.68897 16392 ft 431 kts 15°
2026-04-26 08:12 32.82834 -116.67579 16903 ft 435 kts 16°
2026-04-26 08:12 32.85651 -116.66230 17380 ft 439 kts 17°
2026-04-26 08:12 32.88497 -116.64847 17852 ft 443 kts 17°
2026-04-26 08:13 32.91357 -116.63452 18335 ft 447 kts 17°
2026-04-26 08:13 32.94249 -116.62038 18725 ft 451 kts 16°
2026-04-26 08:13 32.97166 -116.60607 19147 ft 455 kts 16°
2026-04-26 08:13 33.00105 -116.59164 19552 ft 459 kts 16°
2026-04-26 08:14 33.02068 -116.58199 19828 ft 462 kts 16°
2026-04-26 08:14 33.05037 -116.56673 20236 ft 467 kts 17°
2026-04-26 08:14 33.08010 -116.55104 20672 ft 468 kts 18°
2026-04-26 08:14 33.10997 -116.53526 21099 ft 472 kts 18°
2026-04-26 08:15 33.14017 -116.51940 21469 ft 477 kts 18°
2026-04-26 08:15 33.17074 -116.50335 21850 ft 481 kts 18°
2026-04-26 08:15 33.20152 -116.48720 22281 ft 485 kts 17°
2026-04-26 08:15 33.23259 -116.47091 22690 ft 489 kts 17°
2026-04-26 08:16 33.26388 -116.45450 23105 ft 493 kts 17°
2026-04-26 08:16 33.29546 -116.43793 23577 ft 496 kts 18°
2026-04-26 08:16 33.32704 -116.42134 24041 ft 496 kts 18°
2026-04-26 08:16 33.35866 -116.40441 24384 ft 502 kts 20°
2026-04-26 08:17 33.38909 -116.38294 24684 ft 514 kts 32°
2026-04-26 08:17 33.41582 -116.35396 24996 ft 525 kts 46°
2026-04-26 08:17 33.43841 -116.31938 25344 ft 531 kts 52°
2026-04-26 08:17 33.45976 -116.28367 25664 ft 535 kts 52°
2026-04-26 08:18 33.48139 -116.24720 25932 ft 540 kts 52°
2026-04-26 08:18 33.50332 -116.21034 26140 ft 546 kts 52°
2026-04-26 08:18 33.52548 -116.17316 26407 ft 550 kts 52°
2026-04-26 08:18 33.54782 -116.13569 26751 ft 553 kts 52°
2026-04-26 08:19 33.57025 -116.09808 27077 ft 556 kts 52°
2026-04-26 08:19 33.59299 -116.06031 27382 ft 559 kts 50°
2026-04-26 08:19 33.61840 -116.02509 27697 ft 559 kts 43°
2026-04-26 08:19 33.64573 -115.99183 28189 ft 558 kts 40°
2026-04-26 08:20 33.67357 -115.95960 28625 ft 558 kts 39°
2026-04-26 08:20 33.70194 -115.92746 28828 ft 564 kts 39°
2026-04-26 08:20 33.73070 -115.89502 28979 ft 570 kts 39°
2026-04-26 08:20 33.75957 -115.86230 29267 ft 572 kts 39°
2026-04-26 08:21 33.78853 -115.82924 29561 ft 575 kts 39°
2026-04-26 08:21 33.81748 -115.79598 29767 ft 578 kts 39°
2026-04-26 08:21 33.84663 -115.76232 30001 ft 581 kts 40°
2026-04-26 08:21 33.87581 -115.72854 30209 ft 583 kts 40°
2026-04-26 08:22 33.90506 -115.69460 30468 ft 584 kts 40°
2026-04-26 08:22 33.93430 -115.66062 30772 ft 584 kts 40°
2026-04-26 08:22 33.96352 -115.62665 31134 ft 583 kts 40°
2026-04-26 08:22 33.99263 -115.59278 31492 ft 581 kts 40°
2026-04-26 08:23 34.02171 -115.55893 31756 ft 582 kts 40°
2026-04-26 08:23 34.05081 -115.52497 32023 ft 582 kts 40°
2026-04-26 08:23 34.07995 -115.49099 32259 ft 583 kts 40°
2026-04-26 08:23 34.10911 -115.45696 32509 ft 583 kts 40°
2026-04-26 08:24 34.13831 -115.42285 32772 ft 583 kts 40°
2026-04-26 08:24 34.16808 -115.38987 32983 ft 579 kts 34°
2026-04-26 08:24 34.20094 -115.36238 33190 ft 570 kts 23°
2026-04-26 08:24 34.23647 -115.34226 33391 ft 558 kts 11°
2026-04-26 08:25 34.27340 -115.33004 33730 ft 544 kts
2026-04-26 08:25 34.31035 -115.32114 34050 ft 539 kts
2026-04-26 08:25 34.34723 -115.31343 34237 ft 537 kts
2026-04-26 08:25 34.38408 -115.30631 34430 ft 537 kts
2026-04-26 08:26 34.42096 -115.29932 34615 ft 536 kts
2026-04-26 08:26 34.45782 -115.29232 34740 ft 538 kts
2026-04-26 08:26 34.53227 -115.27789 34760 ft 543 kts
2026-04-26 08:27 34.60679 -115.26297 34747 ft 542 kts
2026-04-26 08:27 34.68070 -115.24804 34749 ft 542 kts
2026-04-26 08:28 34.75520 -115.23299 34783 ft 542 kts
2026-04-26 08:28 34.82951 -115.21798 34765 ft 540 kts
2026-04-26 08:29 34.90364 -115.20299 34774 ft 540 kts
2026-04-26 08:29 34.97777 -115.18798 34775 ft 540 kts
2026-04-26 08:30 35.05178 -115.17297 34785 ft 538 kts
2026-04-26 08:30 35.12570 -115.15794 34795 ft 538 kts
2026-04-26 08:31 35.19943 -115.14293 34803 ft 538 kts
2026-04-26 08:31 35.27323 -115.12786 34784 ft 536 kts
2026-04-26 08:32 35.34631 -115.11291 34791 ft 536 kts
2026-04-26 08:32 35.41982 -115.09786 34787 ft 535 kts
2026-04-26 08:33 35.49197 -115.07189 34809 ft 548 kts 22°
2026-04-26 08:33 35.52496 -115.04790 34793 ft 553 kts 34°
2026-04-26 08:33 35.55401 -115.01677 34802 ft 556 kts 43°
2026-04-26 08:34 35.60700 -114.94720 34774 ft 558 kts 47°
2026-04-26 08:34 35.65839 -114.87560 34775 ft 559 kts 47°